Flag for Russia Weather past 2 weeks in Orenburg, Russia

Now
73 °F

Passing clouds.


Feels Like: 77 °F
Forecast: 63 / 88 °F
Wind: 8 mph from East

Location: Orenburg / Tsentralny

Current Time: May 28, 2015 at 9:30:27 PM

Latest Report: May 28, 2015 at 9:00 PM


Visibility: N/A

Pressure: 29.98 "Hg

Humidity: 53%

Dew point: 55 °F

Location of OrenburgLocation

Historic Weather in Orenburg — Graph

°F

Orenburg temperature yesterday

Maximum temperature yesterday: 88 °F (at 5:00 PM)
Minimum temperature yesterday: 57 °F (at 5:00 AM)
Average temperature yesterday: 71 °F

Past Weeks' High & Low Weather Summary

 TemperatureHumidityPressure
High88 °F (May 27, 5:00 PM)100% (May 15, 3:00 AM)30.12 "Hg (May 15, 3:00 AM)
Low39 °F (May 16, 5:30 AM)18% (May 22, 4:30 PM)29.50 "Hg (May 17, 7:00 AM)
Average61 °F65%29.87 "Hg
* Reported May 13 8:00 PM — May 28 8:30 PM, Orenburg, Weather by CustomWeather, © 2015

Note: Actual official high and low records may vary slightly from our data, if they occured in-between our weather recording intervals... More about our weather records

Advertising

Orenburg weather history for previous 24 hours

 ConditionsComfort  
Time TempWeatherWind HumidityBarometerVisibility
8:30 PM
Thu, May 28
75 °FScattered clouds.6 mph50%29.98 "HgN/A
8:00 PM75 °FScattered clouds.6 mph50%29.98 "HgN/A
7:30 PM77 °FScattered clouds.6 mph47%29.98 "HgN/A
7:00 PM79 °FScattered clouds.1 mph42%29.98 "HgN/A
6:30 PM81 °FScattered clouds.3 mph39%29.98 "HgN/A
6:00 PM81 °FScattered clouds.6 mph37%30.01 "HgN/A
5:30 PM82 °FPartly sunny.3 mph35%30.01 "HgN/A
5:00 PM84 °FThunderstorms. Partly sunny.3 mph35%30.01 "HgN/A
4:30 PM82 °FThunderstorms. Partly sunny.8 mph35%30.04 "HgN/A
4:00 PM82 °FThunderstorms. Partly sunny.3 mph37%30.04 "HgN/A
3:30 PM82 °FThunderstorms. Partly sunny.6 mph30%30.04 "HgN/A
3:00 PM82 °FThunderstorms. Partly sunny.10 mph35%30.04 "HgN/A
2:30 PM81 °FThunderstorms. Partly sunny.13 mph37%30.04 "HgN/A
2:00 PM82 °FThunderstorms. Partly sunny.8 mph35%30.04 "HgN/A
1:30 PM82 °FPartly sunny.6 mph40%30.04 "HgN/A
1:00 PM81 °FPartly sunny.8 mph45%30.04 "HgN/A
12:30 PM79 °FPartly sunny.6 mph39%30.07 "HgN/A
12:00 PM79 °FPartly sunny.6 mph42%30.07 "HgN/A
11:30 AM75 °FPartly sunny.6 mph54%30.07 "HgN/A
11:00 AM77 °FPartly sunny.1 mph47%30.07 "HgN/A
10:30 AM77 °FPartly sunny.6 mph47%30.04 "HgN/A
10:00 AM75 °FPartly sunny.6 mph50%30.04 "HgN/A
9:30 AM75 °FPartly sunny.6 mph47%30.04 "HgN/A
9:00 AM73 °FScattered clouds.6 mph50%30.07 "HgN/A
8:30 AM72 °FScattered clouds.6 mph53%30.07 "HgN/A
7:30 AM66 °FPartly sunny.1 mph60%30.07 "HgN/A
7:00 AM66 °FPassing clouds.6 mph60%30.07 "HgN/A
6:30 AM63 °FThunderstorms. Passing clouds.3 mph73%30.04 "HgN/A
6:00 AM57 °FThunderstorms. Passing clouds.3 mph82%30.04 "HgN/A
5:30 AM59 °FPassing clouds.6 mph77%30.04 "HgN/A
5:00 AM59 °FPassing clouds.3 mph77%30.04 "HgN/A
4:30 AM57 °FClear.6 mph82%30.04 "HgN/A
4:00 AM57 °FClear.6 mph82%30.04 "HgN/A
3:30 AM59 °FClear.3 mph77%30.04 "HgN/A
3:00 AM59 °FClear.3 mph77%30.04 "HgN/A
2:30 AM61 °FClear.No wind72%30.07 "HgN/A
2:00 AM63 °FClear.3 mph68%30.07 "HgN/A
1:30 AM63 °FClear.1 mph68%30.07 "HgN/A
1:00 AM61 °FClear.3 mph77%30.07 "HgN/A
12:30 AM63 °FClear.No wind77%30.07 "HgN/A
12:00 AM63 °FClear.3 mph73%30.07 "HgN/A
11:30 PM
Wed, May 27
63 °FPassing clouds.3 mph77%30.07 "HgN/A
11:00 PM66 °FScattered clouds.1 mph68%30.07 "HgN/A
10:30 PM66 °FScattered clouds.1 mph73%30.09 "HgN/A
10:00 PM66 °FScattered clouds.3 mph68%30.09 "HgN/A
9:30 PM66 °FScattered clouds.3 mph64%30.09 "HgN/A
9:00 PM68 °FScattered clouds.6 mph60%30.07 "HgN/A
Weather by CustomWeather, © 2015

See weather overviewHow to use our weather pages